Capitol Logistics 101


KLAX
Los Angeles International Airport
Los Angeles, California, US
KMIA
Miami International Airport
Miami, Florida, US

Route Details

Aircraft Information
Primary: Boeing 747-400BCF
Backup: Boeing 777-200LRF
Route Data
Distance: 2091nm
Sched. Duration: 4h 45m
Avg. Duration: 4h 48m (+3m)
Times Flown: 13
Recm'd Route: DOTSS2 CNERY BLH J65 KOFFA J169 TFD J50 ELP J2 JCT J86 LEV Q102 BAGGS SSCOT5
Planned Altitude: 33,000ft
Origin Wx: KLAX 270053Z 26012KT 10SM BKN250 21/M03 A3018 RMK AO2 SLP221 T02111033
Dest. Wx: KMIA 270053Z 19009KT 10SM -RA BR SCT011 SCT040 OVC100 24/21 A2995 RMK AO2 SLP141 P0016 T02390211 $
Notes:

Financial History
Total Freight: 1,918,111lbs
Average Load: 147,547lbs/flt
Fuel Used: 996,368lbs
Avg. Fuel Used: 76,644lbs/flt
Fuel Expense: $1,185,123
Avg. Fuel Expense: $91,163
Avg. Fuel Cost: $1.19/lbs
Total Gross Income: $3,588,796
Pilot Pay: $2,527
Total Expenses: $388,266
Total Revenue: $2,001,200
Average Revenue: $276,061.23